TimePDT,TemperatureF,Dew PointF,Humidity,Sea Level PressureIn,VisibilityMPH,Wind Direction,Wind SpeedMPH,Gust SpeedMPH,PrecipitationIn,Events,Conditions,WindDirDegrees,DateUTC
12:15 AM,33.8,23.0,65,30.25,10.0,West,6.9,-,N/A,,Clear,270,2013-10-15 07:15:00
12:35 AM,33.8,23.0,65,30.25,10.0,West,5.8,-,N/A,,Clear,270,2013-10-15 07:35:00
12:55 AM,32.0,21.2,64,30.24,10.0,Calm,Calm,-,N/A,,Clear,0,2013-10-15 07:55:00
1:15 AM,30.2,21.2,69,30.25,10.0,NNW,3.5,-,N/A,,Clear,340,2013-10-15 08:15:00
1:35 AM,30.2,21.2,69,30.25,10.0,Calm,Calm,-,N/A,,Clear,0,2013-10-15 08:35:00
1:55 AM,28.4,21.2,74,30.25,10.0,North,4.6,-,N/A,,Clear,360,2013-10-15 08:55:00
2:15 AM,26.6,21.2,80,30.24,10.0,North,3.5,-,N/A,,Clear,350,2013-10-15 09:15:00
2:35 AM,28.4,21.2,74,30.23,10.0,NNW,3.5,-,N/A,,Clear,330,2013-10-15 09:35:00
2:55 AM,26.6,21.2,80,30.23,10.0,Calm,Calm,-,N/A,,Clear,0,2013-10-15 09:55:00
3:15 AM,28.4,23.0,80,30.23,10.0,West,6.9,-,N/A,,Clear,280,2013-10-15 10:15:00
3:35 AM,28.4,21.2,74,30.23,10.0,Calm,Calm,-,N/A,,Clear,0,2013-10-15 10:35:00
3:55 AM,30.2,23.0,75,30.22,10.0,West,9.2,-,N/A,,Clear,270,2013-10-15 10:55:00
4:15 AM,30.2,23.0,75,30.23,10.0,WNW,3.5,-,N/A,,Clear,290,2013-10-15 11:15:00
4:35 AM,30.2,23.0,75,30.23,10.0,WNW,10.4,-,N/A,,Clear,290,2013-10-15 11:35:00
4:55 AM,30.2,24.8,80,30.23,10.0,West,6.9,-,N/A,,Clear,270,2013-10-15 11:55:00
5:15 AM,32.0,24.8,75,30.23,10.0,West,10.4,-,N/A,,Clear,270,2013-10-15 12:15:00
5:35 AM,32.0,24.8,75,30.23,10.0,West,8.1,-,N/A,,Clear,270,2013-10-15 12:35:00
5:55 AM,26.6,23.0,86,30.24,10.0,Calm,Calm,-,N/A,,Clear,0,2013-10-15 12:55:00
6:15 AM,28.4,24.8,86,30.24,10.0,West,9.2,-,N/A,,Clear,270,2013-10-15 13:15:00
6:35 AM,32.0,24.8,75,30.25,10.0,West,10.4,-,N/A,,Clear,260,2013-10-15 13:35:00
6:55 AM,30.2,24.8,80,30.25,10.0,West,10.4,-,N/A,,Clear,270,2013-10-15 13:55:00
7:15 AM,30.2,24.8,80,30.25,10.0,West,9.2,-,N/A,,Clear,280,2013-10-15 14:15:00
7:35 AM,30.2,24.8,80,30.25,10.0,West,10.4,-,N/A,,Clear,280,2013-10-15 14:35:00
7:55 AM,32.0,24.8,75,30.26,10.0,West,9.2,-,N/A,,Clear,280,2013-10-15 14:55:00
8:15 AM,35.6,24.8,65,30.27,10.0,West,10.4,-,N/A,,Clear,280,2013-10-15 15:15:00
8:35 AM,37.4,24.8,60,30.27,10.0,West,13.8,-,N/A,,Clear,270,2013-10-15 15:35:00
8:55 AM,39.2,24.8,56,30.26,10.0,West,13.8,-,N/A,,Clear,280,2013-10-15 15:55:00
9:15 AM,41.0,23.0,49,30.26,10.0,WNW,8.1,-,N/A,,Clear,290,2013-10-15 16:15:00
9:35 AM,42.8,23.0,46,30.26,10.0,WNW,9.2,-,N/A,,Clear,290,2013-10-15 16:35:00
9:55 AM,44.6,23.0,43,30.25,10.0,WNW,8.1,-,N/A,,Clear,290,2013-10-15 16:55:00
10:15 AM,46.4,19.4,34,30.25,10.0,WNW,5.8,-,N/A,,Clear,290,2013-10-15 17:15:00
10:35 AM,48.2,15.8,27,30.24,10.0,West,6.9,-,N/A,,Clear,280,2013-10-15 17:35:00
10:55 AM,50.0,14.0,24,30.24,10.0,Calm,Calm,-,N/A,,Clear,0,2013-10-15 17:55:00
11:15 AM,51.8,12.2,21,30.23,10.0,WSW,3.5,-,N/A,,Clear,240,2013-10-15 18:15:00
11:35 AM,51.8,10.4,19,30.23,10.0,NNW,4.6,-,N/A,,Clear,340,2013-10-15 18:35:00
11:55 AM,53.6,5.0,14,30.23,10.0,WNW,6.9,-,N/A,,Clear,290,2013-10-15 18:55:00
12:15 PM,55.4,5.0,13,30.22,10.0,Calm,Calm,-,N/A,,Clear,0,2013-10-15 19:15:00
12:35 PM,55.4,3.2,12,30.22,10.0,Calm,Calm,-,N/A,,Clear,0,2013-10-15 19:35:00
12:55 PM,57.2,5.0,12,30.21,10.0,WNW,5.8,-,N/A,,Clear,300,2013-10-15 19:55:00
1:15 PM,57.2,6.8,13,30.20,10.0,North,11.5,-,N/A,,Clear,350,2013-10-15 20:15:00
1:35 PM,57.2,5.0,12,30.20,10.0,North,6.9,-,N/A,,Clear,10,2013-10-15 20:35:00
1:55 PM,57.2,6.8,13,30.20,10.0,NNW,11.5,17.3,N/A,,Clear,340,2013-10-15 20:55:00
2:15 PM,57.2,6.8,13,30.21,10.0,North,6.9,-,N/A,,Clear,350,2013-10-15 21:15:00
2:35 PM,59.0,6.8,13,30.21,10.0,North,8.1,17.3,N/A,,Clear,360,2013-10-15 21:35:00
2:55 PM,57.2,8.6,14,30.21,10.0,North,11.5,17.3,N/A,,Clear,360,2013-10-15 21:55:00
3:15 PM,57.2,10.4,16,30.21,10.0,North,5.8,-,N/A,,Clear,350,2013-10-15 22:15:00
3:35 PM,57.2,12.2,17,30.21,10.0,North,10.4,-,N/A,,Clear,10,2013-10-15 22:35:00
3:55 PM,57.2,8.6,14,30.22,10.0,Calm,Calm,-,N/A,,Clear,0,2013-10-15 22:55:00
4:15 PM,57.2,8.6,14,30.21,10.0,NNW,4.6,-,N/A,,Clear,330,2013-10-15 23:15:00
4:35 PM,57.2,12.2,17,30.22,10.0,North,4.6,-,N/A,,Clear,10,2013-10-15 23:35:00
4:55 PM,55.4,14.0,20,30.22,10.0,NNE,8.1,-,N/A,,Clear,30,2013-10-15 23:55:00
5:15 PM,53.6,15.8,22,30.23,10.0,NNE,10.4,-,N/A,,Clear,30,2013-10-16 00:15:00
5:55 PM,50.0,17.6,28,30.23,10.0,North,8.1,-,N/A,,Clear,10,2013-10-16 00:55:00
6:15 PM,46.4,15.8,29,30.23,10.0,SSW,5.8,-,N/A,,Clear,210,2013-10-16 01:15:00
6:35 PM,46.4,15.8,29,30.23,10.0,NW,8.1,-,N/A,,Clear,310,2013-10-16 01:35:00
6:55 PM,42.8,15.8,34,30.23,10.0,WSW,4.6,-,N/A,,Clear,240,2013-10-16 01:55:00
7:15 PM,41.0,15.8,36,30.24,10.0,Calm,Calm,-,N/A,,Clear,0,2013-10-16 02:15:00
7:35 PM,35.6,14.0,41,30.24,10.0,Calm,Calm,-,N/A,,Clear,0,2013-10-16 02:35:00
7:55 PM,35.6,14.0,41,30.25,10.0,Calm,Calm,-,N/A,,Clear,0,2013-10-16 02:55:00
8:15 PM,33.8,14.0,44,30.26,10.0,Calm,Calm,-,N/A,,Clear,0,2013-10-16 03:15:00
8:35 PM,32.0,14.0,48,30.26,10.0,NNW,3.5,-,N/A,,Clear,340,2013-10-16 03:35:00
8:55 PM,33.8,15.8,48,30.27,10.0,NW,4.6,-,N/A,,Clear,320,2013-10-16 03:55:00
9:15 PM,33.8,15.8,48,30.27,10.0,NW,4.6,-,N/A,,Clear,310,2013-10-16 04:15:00
9:35 PM,33.8,17.6,52,30.28,10.0,WNW,6.9,-,N/A,,Clear,290,2013-10-16 04:35:00
9:55 PM,35.6,17.6,48,30.28,10.0,WNW,6.9,-,N/A,,Clear,290,2013-10-16 04:55:00
10:15 PM,35.6,17.6,48,30.29,10.0,West,9.2,-,N/A,,Clear,270,2013-10-16 05:15:00
10:35 PM,35.6,17.6,48,30.29,10.0,West,10.4,-,N/A,,Clear,270,2013-10-16 05:35:00
10:55 PM,37.4,17.6,45,30.29,10.0,West,6.9,-,N/A,,Clear,260,2013-10-16 05:55:00
11:15 PM,35.6,17.6,48,30.29,10.0,West,9.2,-,N/A,,Clear,270,2013-10-16 06:15:00
11:35 PM,33.8,15.8,48,30.29,10.0,West,8.1,-,N/A,,Clear,280,2013-10-16 06:35:00
11:55 PM,32.0,15.8,51,30.28,10.0,WNW,5.8,-,N/A,,Clear,290,2013-10-16 06:55:00